Regional Weather Roundup
Issued by NWS Green Bay, WI

Home | Current Version | Previous Version | Graphics & Text | Print | Product List | Glossary Off
Versions: 1 2 3 4 5 6 7 8 9 10 11 12 13 14 15 16 17 18 19 20 21 22 23 24 25 26 27 28 29 30 31 32 33 34 35 36 37 38 39 40 41 42 43 44 45 46 47 48 49 50

769
ASUS43 KGRB 241800
RWRGRB

NORTH-CENTRAL AND NORTHEAST WISCONSIN REGIONAL WEATHER ROUNDUP
NATIONAL WEATHER SERVICE GREEN BAY WI
1200 PM CST FRI FEB 24 2017

WIZ005-009-010>012-018-019-241900-
NORTH CENTRAL WISCONSIN

CITY           SKY/WX    TMP DP  RH WIND       PRES   REMARKS
IRONWOOD       LGT SNOW  23  18  81 N10G16    29.84F VSB 1
MANITOWISH WTR NOT AVBL
ARBOR VITAE    NOT AVBL
EAGLE RIVER    NOT AVBL
LAND O LAKES   NOT AVBL
RHINELANDER    LGT SNOW  23  18  81 N12G20    29.73S
PHILLIPS       NOT AVBL
ANTIGO         NOT AVBL
TOMAHAWK       NOT AVBL
MERRILL        NOT AVBL
$$

WIZ013-073-241900-
NORTHEAST WISCONSIN

CITY           SKY/WX    TMP DP  RH WIND       PRES   REMARKS
IRON MOUNTAIN  SNOW      24  18  77 N20       29.72F VSB 1/2 WCI  10
MARINETTE      LGT SNOW  28  25  86 NE14G22   29.67F VSB 1
$$

WIZ017-030-035>037-045-241900-
CENTRAL WISCONSIN

CITY           SKY/WX    TMP DP  RH WIND       PRES   REMARKS
MEDFORD        NOT AVBL
WAUSAU         LGT SNOW  24  20  84 N13G21    29.66F VSB 3/4
MOSINEE        SNOW      25  23  93 N10G25    29.67F VSB 1/2
MARSHFIELD     CLOUDY    25  20  81 N13G25    29.67F HAZE
WISC RAPIDS    MIX PCPN  27  23  85 NE10G28   29.67S FOG
STEVENS POINT  NOT AVBL
WAUPACA        NOT AVBL
SHAWANO        CLOUDY    29  25  84 NE18G25   29.67F HAZE
CLINTONVILLE   NOT AVBL
WAUTOMA        FRZ RAIN  28  25  88 NE18G28   29.62F FOG
$$

WIZ038-039-048-051-241900-
FOX VALLEY

CITY           SKY/WX    TMP DP  RH WIND       PRES   REMARKS
NWS GREEN BAY  LGT SNOW  29  27  92 N22G32    29.64F FOG
APPLETON       CLOUDY    27  23  86 NE21G30   29.60F FOG
OSHKOSH        FRZ RAIN  28  25  88 NE23G37   29.60F FOG
FOND DU LAC    LGT SNOW  30  26  85 N22       29.59F FOG
$$

WIZ022-050-052-241900-
EAST CENTRAL WISCONSIN

CITY           SKY/WX    TMP DP  RH WIND       PRES   REMARKS
EPHRAIM        NOT AVBL
WASHINGTON ISL NOT AVBL
STURGEON BAY   MIX PCPN  27  25  92 N17       29.64F FOG
MANITOWOC      NOT AVBL
SHEBOYGAN      MIX PCPN  32  31  96 NE23G30   29.55F FOG
$$

LMZ563-521-522-541>543-241900-
LAKESHORE

STATION/POSITION TIME  TEMP    WIND        PRES    VSBY  WAVE
                       AIR SEA DIR/SP/G                  HT/PER
                 (UTC) (F)     (DEG/KT/KT) (MB)    (MI)  (FT/S)
SHEBOYGAN LKSHOR 1700   33      30/ 33/ 36 1001.5F
KEWAUNEE LKSHORE 1730   31      40/ 26/ 36 1002.5F
NORTHPORT PIER   1740   27      20/ 15/ 23 1005.4F
SISTER BAY LKSHO 1705   28      10/ 13/ 26   N/A
CHAMBERS ISLAND  1740   27      10/ 26/ 30 1004.4F
MENOMINEE LKSHOR 1730   27      20/ 20/ 27 1004.1F
$$




USA.gov is the U.S. government's official web portal to all federal, state and local government web resources and services.